Location: Newark
(60.0000°N, 100.0000°E)
Time: 20:46:24
(UTC+00:00)

N. Korean satellite - Pass Details

Date: 28 November 2019
Orbit: 455 x 506 km, 97.2° (Epoch: 10 December)

Event Time Altitude Azimuth Distance (km) Brightness Sun altitude
Rises 09:48:35 0° 158° (SSE) 2,599 10.3 -9.0°
Reaches altitude 10° 09:50:39 10° 157° (SSE) 1,721 9.4 -9.2°
Maximum altitude 09:54:22 76° 72° (ENE) 530 6.6 -9.6°
Drops below altitude 10° 09:58:06 10° 347° (NNW) 1,734 9.2 -10.1°
Sets 10:00:12 0° 346° (NNW) 2,621 10.2 -10.3°
